Location: Gollag?dem
(16.8053°N, 80.8024°E)
Time: 18:57:07
(UTC+00:00)

Cosmos 2278 Rocket - Pass Details

Date: 13 August 2020
Orbit: 842 x 844 km, 71.0° (Epoch: 20 September)

Event Time Altitude Azimuth Distance (km) Brightness Sun altitude
Exits shadow 23:01:20 26° 212° (SSW) 1,607 3.2 -18.7°
Maximum altitude 23:04:33 65° 287° (WNW) 922 2.2 -18.0°
Drops below altitude 10° 23:10:09 10° 9° (N) 2,458 5.0 -16.8°
Sets 23:12:37 0° 12° (NNE) 3,393 5.8 -16.2°
